Location: Paris
(48.6709°N, 2.3750°E)
Time: 18:52:07
(UTC+02:00)

STARS - Pass Details

Date: 05 July 2022
Orbit: 620 x 637 km, 98.2° (Epoch: 06 August)

Event Time Altitude Azimuth Distance (km) Brightness Sun altitude
Rises 23:59:40 0° 21° (NNE) 2,931 ? -14.0°
Reaches altitude 10° 00:02:03 10° 31° (NNE) 2,015 ? -14.2°
Maximum altitude 00:06:03 34° 97° (E) 1,038 ? -14.5°
Enters shadow 00:07:53 24° 141° (SE) 1,305 ? -14.6°
